Location: Daybis Observatory
(33.4273°N, 88.8061°W)
Time: 09:10:37
(UTC-05:00)

Daily predictions for brighter satellites

Satellite Brightness Start Highest point End
(mag) Time Altitude Azimuth Time Altitude Azimuth Time Altitude Azimuth
Cosmos 2366 rocket 4.1 18:27:32 10° S 18:33:46 87° W 18:39:58 10° N
Cosmos 1908 3.8 18:30:36 10° SSE 18:34:13 37° E 18:37:50 10° NNE
RESURS DK-1 2.6 18:34:16 10° N 18:38:17 49° ENE 18:42:16 10° SE
COSMO-SKYMED 1 2.8 18:35:27 10° NNE 18:39:40 48° E 18:43:51 10° S
Ariane Rocket 3.6 18:34:44 10° S 18:39:46 65° WSW 18:44:51 10° NNW
Cosmos 1626 2.1 18:36:34 10° N 18:40:18 79° E 18:44:01 10° S
Atlas Centaur 2 2.3 18:38:30 10° W 18:42:31 48° S 18:47:29 10° ESE
Cosmos 2227 Rocket 3.7 18:44:55 10° SE 18:48:03 15° E 18:51:12 10° ENE
Cosmos 2151 2.9 18:46:50 10° N 18:51:06 78° E 18:55:19 10° S
YAOGAN 1 2.6 18:53:02 10° SSE 18:57:20 90° ESE 19:01:41 10° NNW
Cosmos 2058 2.9 18:53:48 10° N 18:57:58 87° W 19:02:06 10° S
Cosmos 1400 Rocket 3.6 18:55:53 10° NNW 18:59:48 57° W 19:03:39 10° S
ALOS 2.8 18:56:29 10° SE 19:00:42 36° ENE 19:04:58 10° N
Cosmos 1300 3.8 18:58:07 10° SE 19:01:07 22° E 19:04:07 10° NE
Cosmos 1269 Rocket 4.0 18:56:42 10° S 19:01:54 66° ESE 19:07:09 10° NNE
GRACE-2 3.5 18:59:38 10° S 19:02:10 80° E 19:04:45 10° N
Cosmos 2360 Rocket 2.3 19:00:01 10° NNW 19:05:42 81° WSW 19:11:21 10° SSE
GRACE-1 3.8 19:04:26 10° S 19:06:59 76° W 19:09:34 10° N
MOS 1 4.2 19:01:56 10° SSE 19:07:35 80° ENE 19:13:17 10° N
Cosmos 1821 Rocket 4.0 19:03:50 10° SSE 19:09:48 56° E 19:15:53 10° NNE
Cosmos 1934 Rocket 4.4 19:04:01 10° SSE 19:09:53 41° E 19:15:48 10° NNE
SPOT 3 Rocket 3.5 19:06:07 10° SSE 19:11:16 70° ENE 19:16:27 10° N
Abrixas 4.4 19:12:36 10° WNW 19:14:00 15° NNW 19:15:20 10° N
Aureole 2 Rocket 3.8 19:12:01 10° N 19:15:24 26° ENE 19:16:42 22° E
Cosmos 2239 Rocket 4.4 19:09:45 10° S 19:15:46 64° E 19:21:51 10° NNE
COSMOS 2428 2.8 19:10:48 10° N 19:16:20 51° ENE 19:21:51 10° SE
Cosmos 2219 3.2 19:11:17 10° SSW 19:17:02 88° WNW 19:22:48 10° NNE
Hubble Space Telescope 2.3 19:14:25 10° SW 19:17:47 24° SSE 19:19:41 17° SE
CZ-4 R/B 3.5 19:14:08 10° SSW 19:17:54 32° W 19:21:38 10° NW
FENGYUN 3A 3.7 19:13:07 10° SSE 19:18:22 56° ENE 19:23:40 10° N
Cosmos 2333 Rocket 3.1 19:14:20 10° N 19:19:12 28° ENE 19:21:36 21° E
Cosmos 1452 Rocket 3.9 19:14:08 10° NNW 19:19:21 69° WSW 19:24:34 10° S
Cosmos 2221 3.0 19:18:42 10° SSW 19:22:58 62° W 19:27:17 10° N
Iridium 4 Rocket 3.7 19:17:47 10° S 19:23:16 81° E 19:29:08 10° N
BREEZE-M R/B 1.8 19:21:23 10° SW 19:23:49 82° SE 19:25:05 31° NE
Delta 2 Rocket 3.0 19:21:15 10° WNW 19:25:06 68° N 19:26:27 35° E
Cosmos 2297 Rocket 3.0 19:20:30 10° SSE 19:25:13 28° ESE 19:27:02 23° ENE
Cosmos 494 Rocket 4.3 19:21:30 10° S 19:26:15 40° ESE 19:30:46 11° NE
Cosmos 2098 Rocket 3.3 19:22:05 10° S 19:26:22 86° E 19:31:56 10° N
Cosmos 921 Rocket 4.0 19:28:53 10° NNW 19:33:08 48° W 19:37:17 10° S
Meteor 2-10 3.9 19:28:46 10° S 19:33:42 61° E 19:38:43 10° NNE
Cosmos 2082 4.3 19:29:33 10° SSE 19:34:37 34° ESE 19:36:17 28° ENE
FALCON 9 R/B 3.7 19:33:56 10° SW 19:35:07 12° SSW 19:36:36 10° S
Meteor 2-2 Rocket 4.4 19:29:57 10° SSE 19:35:22 46° E 19:40:45 10° NNE
Cosmos 1726 2.6 19:35:04 10° SSW 19:38:43 61° W 19:42:23 10° N
FengYun 1-2 T 4.3 19:36:01 10° SSE 19:41:19 52° ENE 19:46:37 10° N
ASTRO E2 3.6 19:39:03 10° W 19:42:48 39° SSW 19:44:02 30° SSE
Cosmos 1605 Rocket 4.0 19:38:21 10° SSE 19:44:15 53° E 19:50:08 10° NNE
ATLAS 2A CENTAUR R/B 2.7 19:42:50 10° SSW 19:43:19 14° SSW 19:43:19 14° SSW
Cosmos 2123 Rocket 4.0 19:38:43 10° N 19:44:50 55° E 19:50:58 10° SSE
Cosmos 2219 Rocket 2.1 19:47:27 10° NNW 19:53:02 65° ENE 19:55:33 33° SE
Cosmos 2251 Rocket 3.5 19:50:06 10° S 19:55:14 57° ESE 19:56:38 43° NE
DELTA 2 R/B (1) 3.6 19:54:43 10° WNW 20:00:18 74° SSW 20:01:54 47° SE
CZ-4C R/B 3.9 20:04:12 10° WSW 20:08:36 27° NW 20:13:29 10° N
MOS 1-B Rocket 4.2 20:09:37 46° NE 20:09:37 46° NE 20:14:32 10° N
NOSS 0 Rocket 3.8 20:04:35 10° NNW 20:10:44 68° ENE 20:11:40 59° ESE
Sich 1 3.6 20:10:51 10° NNW 20:15:10 57° W 20:18:38 15° S
H-2A R/B 3.7 20:19:07 45° WNW 20:19:07 45° WNW 20:22:18 10° NNW
OAO 1 Rocket 4.5 20:19:12 10° W 20:24:05 74° NW 20:24:05 74° NW
In-Cosmos 22 Rocket 4.4 20:21:19 10° NNW 20:27:05 73° W 20:30:29 26° S
Cosmos 2237 Rocket 2.8 20:23:13 10° NNW 20:27:16 46° N 20:27:16 46° N
Atlas Centaur 2 3.5 20:27:12 10° WSW 20:31:13 25° SSW 20:31:24 25° SSW
Cosmos 2227 Rocket 2.7 20:25:58 10° SW 20:31:30 57° WNW 20:34:03 31° N
USA 267 3.1 20:32:23 64° NE 20:33:31 86° NW 20:40:04 10° SW
Gbstr 26 Del rocket 3.8 20:28:03 10° NW 20:33:16 81° NW 20:33:16 81° NW
SL-16 R/B 4.4 20:35:48 10° N 20:36:39 14° N 20:36:39 14° N
Hubble Space Telescope 3.8 20:54:45 10° WSW 20:55:02 12° WSW 20:55:02 12° WSW
Cosmos 2333 Rocket 3.6 20:58:17 10° NW 21:03:26 35° WSW 21:03:42 35° WSW
Centaur D AC-28 3.6 20:59:39 10° WSW 21:42:07 - E 21:03:27 51° SSW
Cosmos 2297 Rocket 3.7 21:04:03 10° SW 21:08:59 33° WNW 21:08:59 33° WNW
